Year,Month,Day,Hour,Minute,Value (Times are PST for temperature in C)
2014,08,03,00,00,16.30
2014,08,03,00,01,16.30
2014,08,03,00,02,16.30
2014,08,03,00,03,16.30
2014,08,03,00,04,16.30
2014,08,03,00,05,16.30
2014,08,03,00,06,16.30
2014,08,03,00,07,16.30
2014,08,03,00,08,16.20
2014,08,03,00,09,16.20
2014,08,03,00,10,16.20
2014,08,03,00,11,16.20
2014,08,03,00,12,16.10
2014,08,03,00,13,16.10
2014,08,03,00,14,16.10
2014,08,03,00,15,16.10
2014,08,03,00,16,16.00
2014,08,03,00,17,16.00
2014,08,03,00,18,16.00
2014,08,03,00,19,15.90
2014,08,03,00,20,15.90
2014,08,03,00,21,15.90
2014,08,03,00,22,15.80
2014,08,03,00,23,15.80
2014,08,03,00,24,15.80
2014,08,03,00,25,15.70
2014,08,03,00,26,15.70
2014,08,03,00,27,15.70
2014,08,03,00,28,15.60
2014,08,03,00,29,15.60
2014,08,03,00,30,15.60
2014,08,03,00,31,15.50
2014,08,03,00,32,15.50
2014,08,03,00,33,15.40
2014,08,03,00,34,15.40
2014,08,03,00,35,15.40
2014,08,03,00,36,15.30
2014,08,03,00,37,15.30
2014,08,03,00,38,15.30
2014,08,03,00,39,15.30
2014,08,03,00,40,15.20
2014,08,03,00,41,15.20
2014,08,03,00,42,15.20
2014,08,03,00,43,15.20
2014,08,03,00,44,15.10
2014,08,03,00,45,15.10
2014,08,03,00,46,15.10
2014,08,03,00,47,15.10
2014,08,03,00,48,15.10
2014,08,03,00,49,15.10
2014,08,03,00,50,15.00
2014,08,03,00,51,15.00
2014,08,03,00,52,15.00
2014,08,03,00,53,15.00
2014,08,03,00,54,15.00
2014,08,03,00,55,15.00
2014,08,03,00,56,15.00
2014,08,03,00,57,15.00
2014,08,03,00,58,15.00
2014,08,03,00,59,15.00
2014,08,03,01,00,15.00
2014,08,03,01,01,15.00
2014,08,03,01,02,15.00
2014,08,03,01,03,15.00
2014,08,03,01,04,15.00
2014,08,03,01,05,15.00
2014,08,03,01,06,15.00
2014,08,03,01,07,15.00
2014,08,03,01,08,15.00
2014,08,03,01,09,15.00
2014,08,03,01,10,15.00
2014,08,03,01,11,15.00
2014,08,03,01,12,15.00
2014,08,03,01,13,15.00
2014,08,03,01,14,15.00
2014,08,03,01,15,15.00
2014,08,03,01,16,15.00
2014,08,03,01,17,15.00
2014,08,03,01,18,15.00
2014,08,03,01,19,15.00
2014,08,03,01,20,15.00
2014,08,03,01,21,15.00
2014,08,03,01,22,15.00
2014,08,03,01,23,15.00
2014,08,03,01,24,15.00
2014,08,03,01,25,15.00
2014,08,03,01,26,15.00
2014,08,03,01,27,15.00
2014,08,03,01,28,15.00
2014,08,03,01,29,14.90
2014,08,03,01,30,14.90
2014,08,03,01,31,14.90
2014,08,03,01,32,14.90
2014,08,03,01,33,14.80
2014,08,03,01,34,14.80
2014,08,03,01,35,14.80
2014,08,03,01,36,14.80
2014,08,03,01,37,14.80
2014,08,03,01,38,14.80
2014,08,03,01,39,14.80
2014,08,03,01,40,14.80
2014,08,03,01,41,14.80
2014,08,03,01,42,14.80
2014,08,03,01,43,14.80
2014,08,03,01,44,14.80
2014,08,03,01,45,14.70
2014,08,03,01,46,14.70
2014,08,03,01,47,14.70
2014,08,03,01,48,14.70
2014,08,03,01,49,14.70
2014,08,03,01,50,14.70
2014,08,03,01,51,14.70
2014,08,03,01,52,14.70
2014,08,03,01,53,14.70
2014,08,03,01,54,14.70
2014,08,03,01,55,14.70
2014,08,03,01,56,14.60
2014,08,03,01,57,14.60
2014,08,03,01,58,14.60
2014,08,03,01,59,14.60
2014,08,03,02,00,14.60
2014,08,03,02,01,14.60
2014,08,03,02,02,14.60
2014,08,03,02,03,14.60
2014,08,03,02,04,14.60
2014,08,03,02,05,14.60
2014,08,03,02,06,14.60
2014,08,03,02,07,14.50
2014,08,03,02,08,14.60
2014,08,03,02,09,14.50
2014,08,03,02,10,14.50
2014,08,03,02,11,14.50
2014,08,03,02,12,14.50
2014,08,03,02,13,14.50
2014,08,03,02,14,14.40
2014,08,03,02,15,14.40
2014,08,03,02,16,14.40
2014,08,03,02,17,14.40
2014,08,03,02,18,14.40
2014,08,03,02,19,14.40
2014,08,03,02,20,14.40
2014,08,03,02,21,14.40
2014,08,03,02,22,14.40
2014,08,03,02,23,14.40
2014,08,03,02,24,14.30
2014,08,03,02,25,14.30
2014,08,03,02,26,14.30
2014,08,03,02,27,14.30
2014,08,03,02,28,14.30
2014,08,03,02,29,14.30
2014,08,03,02,30,14.30
2014,08,03,02,31,14.30
2014,08,03,02,32,14.20
2014,08,03,02,33,14.20
2014,08,03,02,34,14.20
2014,08,03,02,35,14.20
2014,08,03,02,36,14.20
2014,08,03,02,37,14.20
2014,08,03,02,38,14.10
2014,08,03,02,39,14.10
2014,08,03,02,40,14.10
2014,08,03,02,41,14.10
2014,08,03,02,42,14.00
2014,08,03,02,43,14.00
2014,08,03,02,44,13.90
2014,08,03,02,45,13.90
2014,08,03,02,46,13.90
2014,08,03,02,47,13.80
2014,08,03,02,48,13.80
2014,08,03,02,49,13.80
2014,08,03,02,50,13.80
2014,08,03,02,51,13.80
2014,08,03,02,52,13.70
2014,08,03,02,53,13.70
2014,08,03,02,54,13.70
2014,08,03,02,55,13.70
2014,08,03,02,56,13.70
2014,08,03,02,57,13.70
2014,08,03,02,58,13.70
2014,08,03,02,59,13.60
2014,08,03,03,00,13.60
2014,08,03,03,01,13.60
2014,08,03,03,02,13.60
2014,08,03,03,03,13.70
2014,08,03,03,04,13.70
2014,08,03,03,05,13.70
2014,08,03,03,06,13.70
2014,08,03,03,07,13.70
2014,08,03,03,08,13.80
2014,08,03,03,09,13.80
2014,08,03,03,10,13.80
2014,08,03,03,11,13.80
2014,08,03,03,12,13.80
2014,08,03,03,13,13.80
2014,08,03,03,14,13.80
2014,08,03,03,15,13.70
2014,08,03,03,16,13.70
2014,08,03,03,17,13.70
2014,08,03,03,18,13.70
2014,08,03,03,19,13.70
2014,08,03,03,20,13.70
2014,08,03,03,21,13.60
2014,08,03,03,22,13.60
2014,08,03,03,23,13.60
2014,08,03,03,24,13.60
2014,08,03,03,25,13.50
2014,08,03,03,26,13.50
2014,08,03,03,27,13.50
2014,08,03,03,28,13.50
2014,08,03,03,29,13.40
2014,08,03,03,30,13.40
2014,08,03,03,31,13.40
2014,08,03,03,32,13.40
2014,08,03,03,33,13.40
2014,08,03,03,34,13.40
2014,08,03,03,35,13.40
2014,08,03,03,36,13.40
2014,08,03,03,37,13.40
2014,08,03,03,38,13.40
2014,08,03,03,39,13.40
2014,08,03,03,40,13.40
2014,08,03,03,41,13.40
2014,08,03,03,42,13.40
2014,08,03,03,43,13.40
2014,08,03,03,44,13.40
2014,08,03,03,45,13.40
2014,08,03,03,46,13.40
2014,08,03,03,47,13.40
2014,08,03,03,48,13.40
2014,08,03,03,49,13.30
2014,08,03,03,50,13.30
2014,08,03,03,51,13.30
2014,08,03,03,52,13.30
2014,08,03,03,53,13.30
2014,08,03,03,54,13.30
2014,08,03,03,55,13.30
2014,08,03,03,56,13.30
2014,08,03,03,57,13.20
2014,08,03,03,58,13.20
2014,08,03,03,59,13.20
2014,08,03,04,00,13.20
2014,08,03,04,01,13.20
2014,08,03,04,02,13.20
2014,08,03,04,03,13.20
2014,08,03,04,04,13.10
2014,08,03,04,05,13.10
2014,08,03,04,06,13.10
2014,08,03,04,07,13.10
2014,08,03,04,08,13.00
2014,08,03,04,09,13.00
2014,08,03,04,10,13.00
2014,08,03,04,11,13.00
2014,08,03,04,12,12.90
2014,08,03,04,13,12.90
2014,08,03,04,14,12.90
2014,08,03,04,15,12.90
2014,08,03,04,16,12.90
2014,08,03,04,17,12.90
2014,08,03,04,18,12.90
2014,08,03,04,19,12.90
2014,08,03,04,20,12.90
2014,08,03,04,21,12.90
2014,08,03,04,22,12.90
2014,08,03,04,23,12.90
2014,08,03,04,24,12.90
2014,08,03,04,25,12.90
2014,08,03,04,26,12.90
2014,08,03,04,27,12.90
2014,08,03,04,28,12.90
2014,08,03,04,29,12.80
2014,08,03,04,30,12.80
2014,08,03,04,31,12.80
2014,08,03,04,32,12.80
2014,08,03,04,33,12.80
2014,08,03,04,34,12.80
2014,08,03,04,35,12.80
2014,08,03,04,36,12.80
2014,08,03,04,37,12.80
2014,08,03,04,38,12.80
2014,08,03,04,39,12.80
2014,08,03,04,40,12.90
2014,08,03,04,41,12.90
2014,08,03,04,42,12.90
2014,08,03,04,43,12.90
2014,08,03,04,44,12.90
2014,08,03,04,45,12.90
2014,08,03,04,46,12.90
2014,08,03,04,47,12.90
2014,08,03,04,48,12.90
2014,08,03,04,49,12.90
2014,08,03,04,50,12.90
2014,08,03,04,51,12.90
2014,08,03,04,52,12.90
2014,08,03,04,53,12.90
2014,08,03,04,54,12.90
2014,08,03,04,55,12.90
2014,08,03,04,56,12.90
2014,08,03,04,57,12.80
2014,08,03,04,58,12.80
2014,08,03,04,59,12.80
2014,08,03,05,00,12.80
2014,08,03,05,01,12.80
2014,08,03,05,02,12.80
2014,08,03,05,03,12.80
2014,08,03,05,04,12.80
2014,08,03,05,05,12.80
2014,08,03,05,06,12.80
2014,08,03,05,07,12.80
2014,08,03,05,08,12.80
2014,08,03,05,09,12.80
2014,08,03,05,10,12.80
2014,08,03,05,11,12.80
2014,08,03,05,12,12.80
2014,08,03,05,13,12.80
2014,08,03,05,14,12.70
2014,08,03,05,15,12.70
2014,08,03,05,16,12.70
2014,08,03,05,17,12.70
2014,08,03,05,18,12.70
2014,08,03,05,19,12.70
2014,08,03,05,20,12.70
2014,08,03,05,21,12.70
2014,08,03,05,22,12.60
2014,08,03,05,23,12.60
2014,08,03,05,24,12.60
2014,08,03,05,25,12.60
2014,08,03,05,26,12.60
2014,08,03,05,27,12.50
2014,08,03,05,28,12.50
2014,08,03,05,29,12.50
2014,08,03,05,30,12.40
2014,08,03,05,31,12.40
2014,08,03,05,32,12.40
2014,08,03,05,33,12.40
2014,08,03,05,34,12.40
2014,08,03,05,35,12.40
2014,08,03,05,36,12.40
2014,08,03,05,37,12.30
2014,08,03,05,38,12.30
2014,08,03,05,39,12.30
2014,08,03,05,40,12.30
2014,08,03,05,41,12.30
2014,08,03,05,42,12.30
2014,08,03,05,43,12.20
2014,08,03,05,44,12.20
2014,08,03,05,45,12.20
2014,08,03,05,46,12.20
2014,08,03,05,47,12.10
2014,08,03,05,48,12.10
2014,08,03,05,49,12.10
2014,08,03,05,50,12.10
2014,08,03,05,51,12.10
2014,08,03,05,52,12.10
2014,08,03,05,53,12.10
2014,08,03,05,54,12.10
2014,08,03,05,55,12.10
2014,08,03,05,56,12.10
2014,08,03,05,57,12.10
2014,08,03,05,58,12.10
2014,08,03,05,59,12.10
2014,08,03,06,00,12.10
2014,08,03,06,01,12.00
2014,08,03,06,02,12.00
2014,08,03,06,03,12.00
2014,08,03,06,04,12.00
2014,08,03,06,05,11.90
2014,08,03,06,06,12.00
2014,08,03,06,07,12.00
2014,08,03,06,08,12.00
2014,08,03,06,09,12.00
2014,08,03,06,10,12.00
2014,08,03,06,11,12.00
2014,08,03,06,12,12.00
2014,08,03,06,13,12.00
2014,08,03,06,14,12.00
2014,08,03,06,15,11.90
2014,08,03,06,16,11.90
2014,08,03,06,17,11.90
2014,08,03,06,18,11.90
2014,08,03,06,19,11.90
2014,08,03,06,20,11.90
2014,08,03,06,21,11.80
2014,08,03,06,22,11.80
2014,08,03,06,23,11.80
2014,08,03,06,24,11.80
2014,08,03,06,25,11.80
2014,08,03,06,26,11.80
2014,08,03,06,27,11.80
2014,08,03,06,28,11.80
2014,08,03,06,29,11.80
2014,08,03,06,30,11.80
2014,08,03,06,31,11.80
2014,08,03,06,32,11.80
2014,08,03,06,33,11.80
2014,08,03,06,34,11.80
2014,08,03,06,35,11.80
2014,08,03,06,36,11.80
2014,08,03,06,37,11.80
2014,08,03,06,38,11.80
2014,08,03,06,39,11.90
2014,08,03,06,40,11.90
2014,08,03,06,41,11.90
2014,08,03,06,42,11.90
2014,08,03,06,43,11.90
2014,08,03,06,44,11.90
2014,08,03,06,45,11.90
2014,08,03,06,46,11.90
2014,08,03,06,47,11.90
2014,08,03,06,48,11.90
2014,08,03,06,49,11.90
2014,08,03,06,50,12.00
2014,08,03,06,51,12.00
2014,08,03,06,52,12.10
2014,08,03,06,53,12.10
2014,08,03,06,54,12.10
2014,08,03,06,55,12.10
2014,08,03,06,56,12.10
2014,08,03,06,57,12.20
2014,08,03,06,58,12.20
2014,08,03,06,59,12.20
2014,08,03,07,00,12.20
2014,08,03,07,01,12.20
2014,08,03,07,02,12.20
2014,08,03,07,03,12.20
2014,08,03,07,04,12.20
2014,08,03,07,05,12.20
2014,08,03,07,06,12.20
2014,08,03,07,07,12.20
2014,08,03,07,08,12.20
2014,08,03,07,09,12.30
2014,08,03,07,10,12.30
2014,08,03,07,11,12.30
2014,08,03,07,12,12.30
2014,08,03,07,13,12.30
2014,08,03,07,14,12.30
2014,08,03,07,15,12.40
2014,08,03,07,16,12.40
2014,08,03,07,17,12.40
2014,08,03,07,18,12.40
2014,08,03,07,19,12.40
2014,08,03,07,20,12.40
2014,08,03,07,21,12.50
2014,08,03,07,22,12.50
2014,08,03,07,23,12.50
2014,08,03,07,24,12.60
2014,08,03,07,25,12.60
2014,08,03,07,26,12.60
2014,08,03,07,27,12.60
2014,08,03,07,28,12.60
2014,08,03,07,29,12.70
2014,08,03,07,30,12.70
2014,08,03,07,31,12.70
2014,08,03,07,32,12.80
2014,08,03,07,33,12.80
2014,08,03,07,34,12.90
2014,08,03,07,35,13.00
2014,08,03,07,36,13.00
2014,08,03,07,37,13.10
2014,08,03,07,38,13.20
2014,08,03,07,39,13.30
2014,08,03,07,40,13.30
2014,08,03,07,41,13.40
2014,08,03,07,42,13.40
2014,08,03,07,43,13.40
2014,08,03,07,44,13.50
2014,08,03,07,45,13.50
2014,08,03,07,46,13.60
2014,08,03,07,47,13.60
2014,08,03,07,48,13.70
2014,08,03,07,49,13.70
2014,08,03,07,50,13.80
2014,08,03,07,51,13.80
2014,08,03,07,52,13.80
2014,08,03,07,53,13.90
2014,08,03,07,54,13.90
2014,08,03,07,55,13.90
2014,08,03,07,56,14.00
2014,08,03,07,57,14.10
2014,08,03,07,58,14.10
2014,08,03,07,59,14.20
2014,08,03,08,00,14.20
2014,08,03,08,01,14.20
2014,08,03,08,02,14.30
2014,08,03,08,03,14.30
2014,08,03,08,04,14.30
2014,08,03,08,05,14.40
2014,08,03,08,06,14.40
2014,08,03,08,07,14.50
2014,08,03,08,08,14.50
2014,08,03,08,09,14.60
2014,08,03,08,10,14.60
2014,08,03,08,11,14.70
2014,08,03,08,12,14.80
2014,08,03,08,13,14.90
2014,08,03,08,14,15.00
2014,08,03,08,15,15.00
2014,08,03,08,16,15.10
2014,08,03,08,17,15.30
2014,08,03,08,18,15.40
2014,08,03,08,19,15.60
2014,08,03,08,20,15.80
2014,08,03,08,21,15.90
2014,08,03,08,22,16.10
2014,08,03,08,23,16.30
2014,08,03,08,24,16.60
2014,08,03,08,25,16.80
2014,08,03,08,26,17.00
2014,08,03,08,27,17.20
2014,08,03,08,28,17.40
2014,08,03,08,29,17.60
2014,08,03,08,30,17.80
2014,08,03,08,31,18.00
2014,08,03,08,32,18.20
2014,08,03,08,33,18.30
2014,08,03,08,34,18.40
2014,08,03,08,35,18.60
2014,08,03,08,36,18.70
2014,08,03,08,37,18.80
2014,08,03,08,38,18.90
2014,08,03,08,39,19.00
2014,08,03,08,40,19.10
2014,08,03,08,41,19.20
2014,08,03,08,42,19.30
2014,08,03,08,43,19.40
2014,08,03,08,44,19.50
2014,08,03,08,45,19.60
2014,08,03,08,46,19.70
2014,08,03,08,47,19.80
2014,08,03,08,48,19.90
2014,08,03,08,49,19.90
2014,08,03,08,50,20.00
2014,08,03,08,51,20.00
2014,08,03,08,52,20.10
2014,08,03,08,53,20.20
2014,08,03,08,54,20.20
2014,08,03,08,55,20.30
2014,08,03,08,56,20.40
2014,08,03,08,57,20.40
2014,08,03,08,58,20.50
2014,08,03,08,59,20.50
2014,08,03,09,00,20.60
2014,08,03,09,01,20.60
2014,08,03,09,02,20.70
2014,08,03,09,03,20.80
2014,08,03,09,04,20.80
2014,08,03,09,05,20.90
2014,08,03,09,06,20.90
2014,08,03,09,07,21.00
2014,08,03,09,08,21.00
2014,08,03,09,09,21.10
2014,08,03,09,10,21.10
2014,08,03,09,11,21.20
2014,08,03,09,12,21.20
2014,08,03,09,13,21.20
2014,08,03,09,14,21.30
2014,08,03,09,15,21.30
2014,08,03,09,16,21.30
2014,08,03,09,17,21.30
2014,08,03,09,18,21.40
2014,08,03,09,19,21.40
2014,08,03,09,20,21.40
2014,08,03,09,21,21.50
2014,08,03,09,22,21.50
2014,08,03,09,23,21.60
2014,08,03,09,24,21.60
2014,08,03,09,25,21.60
2014,08,03,09,26,21.70
2014,08,03,09,27,21.70
2014,08,03,09,28,21.70
2014,08,03,09,29,21.80
2014,08,03,09,30,21.80
2014,08,03,09,31,21.80
2014,08,03,09,32,21.90
2014,08,03,09,33,21.90
2014,08,03,09,34,21.90
2014,08,03,09,35,22.00
2014,08,03,09,36,22.00
2014,08,03,09,37,22.10
2014,08,03,09,38,22.10
2014,08,03,09,39,22.20
2014,08,03,09,40,22.30
2014,08,03,09,41,22.30
2014,08,03,09,42,22.40
2014,08,03,09,43,22.40
2014,08,03,09,44,22.50
2014,08,03,09,45,22.50
2014,08,03,09,46,22.50
2014,08,03,09,47,22.60
2014,08,03,09,48,22.60
2014,08,03,09,49,22.60
2014,08,03,09,50,22.70
2014,08,03,09,51,22.70
2014,08,03,09,52,22.70
2014,08,03,09,53,22.80
2014,08,03,09,54,22.80
2014,08,03,09,55,22.80
2014,08,03,09,56,22.80
2014,08,03,09,57,22.90
2014,08,03,09,58,23.00
2014,08,03,09,59,23.00
2014,08,03,10,00,23.10
2014,08,03,10,01,23.10
2014,08,03,10,02,23.20
2014,08,03,10,03,23.20
2014,08,03,10,04,23.20
2014,08,03,10,05,23.30
2014,08,03,10,06,23.30
2014,08,03,10,07,23.30
2014,08,03,10,08,23.40
2014,08,03,10,09,23.40
2014,08,03,10,10,23.40
2014,08,03,10,11,23.40
2014,08,03,10,12,23.40
2014,08,03,10,13,23.40
2014,08,03,10,14,23.50
2014,08,03,10,15,23.50
2014,08,03,10,16,23.60
2014,08,03,10,17,23.60
2014,08,03,10,18,23.70
2014,08,03,10,19,23.70
2014,08,03,10,20,23.80
2014,08,03,10,21,23.80
2014,08,03,10,22,23.90
2014,08,03,10,23,23.90
2014,08,03,10,24,24.00
2014,08,03,10,25,24.00
2014,08,03,10,26,24.10
2014,08,03,10,27,24.20
2014,08,03,10,28,24.20
2014,08,03,10,29,24.30
2014,08,03,10,30,24.30
2014,08,03,10,31,24.40
2014,08,03,10,32,24.50
2014,08,03,10,33,24.50
2014,08,03,10,34,24.60
2014,08,03,10,35,24.60
2014,08,03,10,36,24.70
2014,08,03,10,37,24.80
2014,08,03,10,38,24.90
2014,08,03,10,39,25.00
2014,08,03,10,40,25.10
2014,08,03,10,41,25.20
2014,08,03,10,42,25.30
2014,08,03,10,43,25.40
2014,08,03,10,44,25.50
2014,08,03,10,45,25.60
2014,08,03,10,46,25.70
2014,08,03,10,47,25.80
2014,08,03,10,48,25.90
2014,08,03,10,49,26.00
2014,08,03,10,50,26.10
2014,08,03,10,51,26.30
2014,08,03,10,52,26.40
2014,08,03,10,53,26.50
2014,08,03,10,54,26.50
2014,08,03,10,55,26.60
2014,08,03,10,56,26.70
2014,08,03,10,57,26.80
2014,08,03,10,58,26.90
2014,08,03,10,59,27.10
2014,08,03,11,00,27.20
2014,08,03,11,01,27.30
2014,08,03,11,02,27.40
2014,08,03,11,03,27.60
2014,08,03,11,04,27.70
2014,08,03,11,05,27.80
2014,08,03,11,06,28.00
2014,08,03,11,07,28.10
2014,08,03,11,08,28.30
2014,08,03,11,09,28.40
2014,08,03,11,10,28.60
2014,08,03,11,11,28.70
2014,08,03,11,12,28.80
2014,08,03,11,13,28.90
2014,08,03,11,14,29.00
2014,08,03,11,15,29.10
2014,08,03,11,16,29.20
2014,08,03,11,17,29.40
2014,08,03,11,18,29.50
2014,08,03,11,19,29.60
2014,08,03,11,20,29.70
2014,08,03,11,21,29.80
2014,08,03,11,22,29.90
2014,08,03,11,23,30.00
2014,08,03,11,24,30.10
2014,08,03,11,25,30.20
2014,08,03,11,26,30.20
2014,08,03,11,27,30.30
2014,08,03,11,28,30.40
2014,08,03,11,29,30.50
2014,08,03,11,30,30.60
2014,08,03,11,31,30.70
2014,08,03,11,32,30.80
2014,08,03,11,33,30.90
2014,08,03,11,34,30.90
2014,08,03,11,35,31.00
2014,08,03,11,36,31.00
2014,08,03,11,37,31.10
2014,08,03,11,38,31.10
2014,08,03,11,39,31.20
2014,08,03,11,40,31.20
2014,08,03,11,41,31.30
2014,08,03,11,42,31.40
2014,08,03,11,43,31.50
2014,08,03,11,44,31.60
2014,08,03,11,45,31.70
2014,08,03,11,46,31.80
2014,08,03,11,47,32.00
2014,08,03,11,48,32.10
2014,08,03,11,49,32.10
2014,08,03,11,50,32.20
2014,08,03,11,51,32.20
2014,08,03,11,52,32.30
2014,08,03,11,53,32.30
2014,08,03,11,54,32.40
2014,08,03,11,55,32.50
2014,08,03,11,56,32.60
2014,08,03,11,57,32.60
2014,08,03,11,58,32.60
2014,08,03,11,59,32.70
2014,08,03,12,00,32.70
2014,08,03,12,01,32.80
2014,08,03,12,02,32.80
2014,08,03,12,03,32.90
2014,08,03,12,04,33.00
2014,08,03,19,52,32.90
2014,08,03,19,53,32.70
2014,08,03,19,54,32.50
2014,08,03,19,55,32.30
2014,08,03,19,56,32.10
2014,08,03,19,57,31.90
2014,08,03,19,58,31.80
2014,08,03,19,59,31.60
2014,08,03,20,00,31.40
2014,08,03,20,01,31.20
2014,08,03,20,02,31.10
2014,08,03,20,03,30.90
2014,08,03,20,04,30.80
2014,08,03,20,05,30.60
2014,08,03,20,06,30.50
2014,08,03,20,07,30.40
2014,08,03,20,08,30.30
2014,08,03,20,09,30.20
2014,08,03,20,10,30.10
2014,08,03,20,11,30.00
2014,08,03,20,12,29.90
2014,08,03,20,13,29.80
2014,08,03,20,14,29.80
2014,08,03,20,15,29.70
2014,08,03,20,16,29.60
2014,08,03,20,17,29.50
2014,08,03,20,18,29.40
2014,08,03,20,19,29.30
2014,08,03,20,20,29.20
2014,08,03,20,21,29.10
2014,08,03,20,22,29.00
2014,08,03,20,23,28.90
2014,08,03,20,24,28.70
2014,08,03,20,25,28.60
2014,08,03,20,26,28.40
2014,08,03,20,27,28.30
2014,08,03,20,28,28.10
2014,08,03,20,29,27.90
2014,08,03,20,30,27.80
2014,08,03,20,31,27.60
2014,08,03,20,32,27.40
2014,08,03,20,33,27.30
2014,08,03,20,34,27.20
2014,08,03,20,35,27.00
2014,08,03,20,36,26.90
2014,08,03,20,37,26.80
2014,08,03,20,38,26.70
2014,08,03,20,39,26.50
2014,08,03,20,40,26.40
2014,08,03,20,41,26.30
2014,08,03,20,42,26.20
2014,08,03,20,43,26.00
2014,08,03,20,44,25.90
2014,08,03,20,45,25.80
2014,08,03,20,46,25.60
2014,08,03,20,47,25.50
2014,08,03,20,48,25.30
2014,08,03,20,49,25.20
2014,08,03,20,50,25.10
2014,08,03,20,51,25.00
2014,08,03,20,52,24.90
2014,08,03,20,53,24.80
2014,08,03,20,54,24.70
2014,08,03,20,55,24.60
2014,08,03,20,56,24.50
2014,08,03,20,57,24.50
2014,08,03,20,58,24.40
2014,08,03,20,59,24.30
2014,08,03,21,00,24.30
2014,08,03,21,01,24.20
2014,08,03,21,02,24.10
2014,08,03,21,03,24.00
2014,08,03,21,04,24.00
2014,08,03,21,05,23.90
2014,08,03,21,06,23.80
2014,08,03,21,07,23.80
2014,08,03,21,08,23.70
2014,08,03,21,09,23.60
2014,08,03,21,10,23.50
2014,08,03,21,11,23.50
2014,08,03,21,12,23.40
2014,08,03,21,13,23.30
2014,08,03,21,14,23.20
2014,08,03,21,15,23.10
2014,08,03,21,16,23.00
2014,08,03,21,17,22.90
2014,08,03,21,18,22.80
2014,08,03,21,19,22.70
2014,08,03,21,20,22.60
2014,08,03,21,21,22.50
2014,08,03,21,22,22.40
2014,08,03,21,23,22.40
2014,08,03,21,24,22.30
2014,08,03,21,25,22.20
2014,08,03,21,26,22.10
2014,08,03,21,27,22.10
2014,08,03,21,28,22.00
2014,08,03,21,29,21.90
2014,08,03,21,30,21.80
2014,08,03,21,31,21.80
2014,08,03,21,32,21.70
2014,08,03,21,33,21.60
2014,08,03,21,34,21.50
2014,08,03,21,35,21.40
2014,08,03,21,36,21.30
2014,08,03,21,37,21.30
2014,08,03,21,38,21.20
2014,08,03,21,39,21.10
2014,08,03,21,40,21.10
2014,08,03,21,41,21.00
2014,08,03,21,42,20.90
2014,08,03,21,43,20.90
2014,08,03,21,44,20.80
2014,08,03,21,45,20.70
2014,08,03,21,46,20.70
2014,08,03,21,47,20.60
2014,08,03,21,48,20.50
2014,08,03,21,49,20.40
2014,08,03,21,50,20.40
2014,08,03,21,51,20.30
2014,08,03,21,52,20.30
2014,08,03,21,53,20.20
2014,08,03,21,54,20.20
2014,08,03,21,55,20.10
2014,08,03,21,56,20.10
2014,08,03,21,57,20.00
2014,08,03,21,58,20.00
2014,08,03,21,59,19.90
2014,08,03,22,00,19.90
2014,08,03,22,01,19.90
2014,08,03,22,02,19.80
2014,08,03,22,03,19.80
2014,08,03,22,04,19.70
2014,08,03,22,05,19.70
2014,08,03,22,06,19.70
2014,08,03,22,07,19.60
2014,08,03,22,08,19.60
2014,08,03,22,09,19.50
2014,08,03,22,10,19.50
2014,08,03,22,11,19.40
2014,08,03,22,12,19.40
2014,08,03,22,13,19.30
2014,08,03,22,14,19.30
2014,08,03,22,15,19.30
2014,08,03,22,16,19.20
2014,08,03,22,17,19.20
2014,08,03,22,18,19.20
2014,08,03,22,19,19.10
2014,08,03,22,20,19.10
2014,08,03,22,21,19.10
2014,08,03,22,22,19.10
2014,08,03,22,23,19.00
2014,08,03,22,24,19.00
2014,08,03,22,25,18.90
2014,08,03,22,26,18.90
2014,08,03,22,27,18.90
2014,08,03,22,28,18.90
2014,08,03,22,29,18.80
2014,08,03,22,30,18.80
2014,08,03,22,31,18.80
2014,08,03,22,32,18.80
2014,08,03,22,33,18.70
2014,08,03,22,34,18.70
2014,08,03,22,35,18.70
2014,08,03,22,36,18.70
2014,08,03,22,37,18.70
2014,08,03,22,38,18.60
2014,08,03,22,39,18.60
2014,08,03,22,40,18.60
2014,08,03,22,41,18.50
2014,08,03,22,42,18.50
2014,08,03,22,43,18.40
2014,08,03,22,44,18.40
2014,08,03,22,45,18.40
2014,08,03,22,46,18.30
2014,08,03,22,47,18.30
2014,08,03,22,48,18.30
2014,08,03,22,49,18.20
2014,08,03,22,50,18.20
2014,08,03,22,51,18.20
2014,08,03,22,52,18.10
2014,08,03,22,53,18.10
2014,08,03,22,54,18.10
2014,08,03,22,55,18.00
2014,08,03,22,56,18.00
2014,08,03,22,57,17.90
2014,08,03,22,58,17.90
2014,08,03,22,59,17.80
2014,08,03,23,00,17.80
2014,08,03,23,01,17.80
2014,08,03,23,02,17.80
2014,08,03,23,03,17.70
2014,08,03,23,04,17.70
2014,08,03,23,05,17.60
2014,08,03,23,06,17.60
2014,08,03,23,07,17.50
2014,08,03,23,08,17.50
2014,08,03,23,09,17.40
2014,08,03,23,10,17.40
2014,08,03,23,11,17.40
2014,08,03,23,12,17.30
2014,08,03,23,13,17.30
2014,08,03,23,14,17.20
2014,08,03,23,15,17.20
2014,08,03,23,16,17.10
2014,08,03,23,17,17.10
2014,08,03,23,18,17.00
2014,08,03,23,19,17.00
2014,08,03,23,20,16.90
2014,08,03,23,21,16.90
2014,08,03,23,22,16.90
2014,08,03,23,23,16.80
2014,08,03,23,24,16.80
2014,08,03,23,25,16.80
2014,08,03,23,26,16.70
2014,08,03,23,27,16.70
2014,08,03,23,28,16.70
2014,08,03,23,29,16.60
2014,08,03,23,30,16.60
2014,08,03,23,31,16.60
2014,08,03,23,32,16.60
2014,08,03,23,33,16.50
2014,08,03,23,34,16.50
2014,08,03,23,35,16.50
2014,08,03,23,36,16.40
2014,08,03,23,37,16.40
2014,08,03,23,38,16.40
2014,08,03,23,39,16.40
2014,08,03,23,40,16.40
2014,08,03,23,41,16.30
2014,08,03,23,42,16.30
2014,08,03,23,43,16.30
2014,08,03,23,44,16.30
2014,08,03,23,45,16.30
2014,08,03,23,46,16.30
2014,08,03,23,47,16.30
2014,08,03,23,48,16.20
2014,08,03,23,49,16.20
2014,08,03,23,50,16.20
2014,08,03,23,51,16.20
2014,08,03,23,52,16.20
2014,08,03,23,53,16.20
2014,08,03,23,54,16.20
2014,08,03,23,55,16.20
2014,08,03,23,56,16.10
2014,08,03,23,57,16.10
2014,08,03,23,58,16.10
2014,08,03,23,59,16.10
